Time,TemperatureF,DewpointF,PressureIn,WindDirection,WindDirectionDegrees,WindSpeedMPH,WindSpeedGustMPH,Humidity,HourlyPrecipIn,Conditions,Clouds,dailyrainin,SoftwareType,DateUTC
2013-09-21 00:00:00,72.0,65.9,29.81,South,191,0.0,1.0,81,0.00,,,0.00,VWS V14.01,2013-09-21 04:00:00,
2013-09-21 00:01:00,69.8,66.4,29.81,South,191,0.0,1.0,89,0.01,,,0.01,VWS V14.01,2013-09-21 04:01:00,
2013-09-21 00:06:00,69.8,66.4,29.81,South,191,1.0,1.0,89,0.02,,,0.02,VWS V14.01,2013-09-21 04:06:00,
2013-09-21 00:10:00,69.6,66.2,29.81,SSW,194,0.0,1.0,89,0.02,,,0.02,VWS V14.01,2013-09-21 04:10:00,
2013-09-21 00:11:00,69.6,66.2,29.81,SSW,194,0.0,1.0,89,0.02,,,0.02,VWS V14.01,2013-09-21 04:11:00,
2013-09-21 00:16:00,69.6,66.2,29.81,SSW,194,0.0,1.0,89,0.02,,,0.02,VWS V14.01,2013-09-21 04:16:00,
2013-09-21 00:20:00,69.4,66.0,29.81,SSW,199,0.0,1.0,89,0.02,,,0.02,VWS V14.01,2013-09-21 04:20:00,
2013-09-21 00:21:00,69.4,66.0,29.81,SSW,199,0.0,1.0,89,0.02,,,0.02,VWS V14.01,2013-09-21 04:21:00,
2013-09-21 00:26:00,69.4,66.3,29.81,SSW,202,0.0,1.0,90,0.02,,,0.02,VWS V14.01,2013-09-21 04:26:00,
2013-09-21 00:30:00,69.4,66.3,29.80,SSW,197,0.0,1.0,90,0.02,,,0.02,VWS V14.01,2013-09-21 04:30:00,
2013-09-21 00:31:00,69.4,66.3,29.80,SSW,197,0.0,1.0,90,0.02,,,0.02,VWS V14.01,2013-09-21 04:31:00,
2013-09-21 00:36:00,69.3,66.2,29.80,SSW,210,1.0,1.0,90,0.02,,,0.02,VWS V14.01,2013-09-21 04:36:00,
2013-09-21 00:40:00,69.1,66.1,29.80,SSE,150,0.0,1.0,90,0.03,,,0.03,VWS V14.01,2013-09-21 04:40:00,
2013-09-21 00:42:00,69.1,66.1,29.80,SSE,150,0.0,1.0,90,0.02,,,0.03,VWS V14.01,2013-09-21 04:42:00,
2013-09-21 00:47:00,69.1,66.1,29.80,SE,136,0.0,1.0,90,0.02,,,0.03,VWS V14.01,2013-09-21 04:47:00,
2013-09-21 00:50:00,68.9,65.8,29.80,SSE,152,0.0,1.0,90,0.02,,,0.03,VWS V14.01,2013-09-21 04:50:00,
2013-09-21 00:52:00,68.9,65.8,29.80,SSE,152,0.0,1.0,90,0.02,,,0.03,VWS V14.01,2013-09-21 04:52:00,
2013-09-21 00:57:00,68.8,65.8,29.80,SSE,152,0.0,1.0,90,0.02,,,0.03,VWS V14.01,2013-09-21 04:57:00,
2013-09-21 01:00:00,68.8,65.8,29.79,SSE,152,0.0,1.0,90,0.02,,,0.03,VWS V14.01,2013-09-21 05:00:00,
2013-09-21 01:02:00,68.8,65.8,29.79,SSE,152,0.0,1.0,90,0.02,,,0.03,VWS V14.01,2013-09-21 05:02:00,
2013-09-21 01:07:00,68.6,65.6,29.79,SSE,154,0.0,1.0,90,0.02,,,0.03,VWS V14.01,2013-09-21 05:07:00,
2013-09-21 01:10:00,68.6,65.6,29.79,SSE,154,0.0,1.0,90,0.02,,,0.03,VWS V14.01,2013-09-21 05:10:00,
2013-09-21 01:12:00,68.6,65.6,29.79,SSE,154,0.0,1.0,90,0.01,,,0.03,VWS V14.01,2013-09-21 05:12:00,
2013-09-21 01:17:00,68.6,65.6,29.79,SSE,154,0.0,1.0,90,0.01,,,0.03,VWS V14.01,2013-09-21 05:17:00,
2013-09-21 01:20:00,68.6,65.6,29.79,SSE,155,0.0,1.0,90,0.01,,,0.03,VWS V14.01,2013-09-21 05:20:00,
2013-09-21 01:22:00,68.6,65.6,29.79,SSE,155,0.0,1.0,90,0.01,,,0.03,VWS V14.01,2013-09-21 05:22:00,
2013-09-21 01:27:00,68.4,65.7,29.79,SSE,155,0.0,1.0,91,0.02,,,0.04,VWS V14.01,2013-09-21 05:27:00,
2013-09-21 01:30:00,68.4,65.7,29.79,SSE,155,0.0,1.0,91,0.03,,,0.05,VWS V14.01,2013-09-21 05:30:00,
2013-09-21 01:32:00,68.4,65.7,29.79,SSE,155,0.0,1.0,91,0.03,,,0.05,VWS V14.01,2013-09-21 05:32:00,
2013-09-21 01:37:00,68.3,65.6,29.79,SSE,155,0.0,1.0,91,0.03,,,0.05,VWS V14.01,2013-09-21 05:37:00,
2013-09-21 01:40:00,68.3,65.6,29.79,SSE,155,0.0,1.0,91,0.03,,,0.05,VWS V14.01,2013-09-21 05:40:00,
2013-09-21 01:42:00,68.3,65.6,29.79,SSE,155,0.0,1.0,91,0.02,,,0.05,VWS V14.01,2013-09-21 05:42:00,
2013-09-21 01:47:00,68.1,65.7,29.78,SSE,155,0.0,1.0,92,0.02,,,0.05,VWS V14.01,2013-09-21 05:47:00,
2013-09-21 01:50:00,68.1,65.7,29.78,SSE,155,0.0,1.0,92,0.03,,,0.06,VWS V14.01,2013-09-21 05:50:00,
2013-09-21 01:52:00,68.1,65.7,29.78,SSE,155,0.0,1.0,92,0.03,,,0.06,VWS V14.01,2013-09-21 05:52:00,
2013-09-21 01:57:00,68.1,65.7,29.78,SSE,155,0.0,1.0,92,0.03,,,0.06,VWS V14.01,2013-09-21 05:57:00,
2013-09-21 02:00:00,67.9,65.5,29.77,SSE,155,0.0,1.0,92,0.03,,,0.06,VWS V14.01,2013-09-21 06:00:00,
2013-09-21 02:02:00,67.9,65.5,29.77,SSE,155,0.0,1.0,92,0.04,,,0.07,VWS V14.01,2013-09-21 06:02:00,
2013-09-21 02:07:00,67.9,65.8,29.77,SSE,155,0.0,1.0,93,0.04,,,0.07,VWS V14.01,2013-09-21 06:07:00,
2013-09-21 02:10:00,67.9,65.8,29.77,SSE,155,0.0,1.0,93,0.04,,,0.07,VWS V14.01,2013-09-21 06:10:00,
2013-09-21 02:12:00,67.9,65.8,29.77,SSE,155,0.0,1.0,93,0.04,,,0.07,VWS V14.01,2013-09-21 06:12:00,
2013-09-21 02:17:00,67.9,65.8,29.76,SSE,155,0.0,1.0,93,0.05,,,0.08,VWS V14.01,2013-09-21 06:17:00,
2013-09-21 02:20:00,67.9,65.8,29.76,SSE,155,0.0,1.0,93,0.06,,,0.09,VWS V14.01,2013-09-21 06:20:00,
2013-09-21 02:22:00,67.9,65.8,29.76,SSE,155,0.0,1.0,93,0.06,,,0.09,VWS V14.01,2013-09-21 06:22:00,
2013-09-21 02:27:00,67.9,65.8,29.76,SSE,155,0.0,1.0,93,0.06,,,0.09,VWS V14.01,2013-09-21 06:27:00,
2013-09-21 02:30:00,67.9,65.8,29.75,SSE,155,0.0,1.0,93,0.07,,,0.10,VWS V14.01,2013-09-21 06:30:00,
2013-09-21 02:32:00,67.8,65.7,29.75,SSE,155,0.0,1.0,93,0.05,,,0.10,VWS V14.01,2013-09-21 06:32:00,
2013-09-21 02:37:00,67.8,66.0,29.75,SSE,155,0.0,1.0,94,0.06,,,0.11,VWS V14.01,2013-09-21 06:37:00,
2013-09-21 02:40:00,67.8,66.0,29.75,SSE,155,0.0,1.0,94,0.06,,,0.11,VWS V14.01,2013-09-21 06:40:00,
2013-09-21 02:42:00,67.8,66.0,29.75,SSE,155,0.0,1.0,94,0.06,,,0.11,VWS V14.01,2013-09-21 06:42:00,
2013-09-21 02:47:00,67.8,66.0,29.74,SSE,155,0.0,1.0,94,0.07,,,0.12,VWS V14.01,2013-09-21 06:47:00,
2013-09-21 02:50:00,67.8,66.0,29.74,SSE,155,0.0,1.0,94,0.07,,,0.12,VWS V14.01,2013-09-21 06:50:00,
2013-09-21 02:52:00,67.8,66.0,29.74,SSE,155,0.0,1.0,94,0.07,,,0.13,VWS V14.01,2013-09-21 06:52:00,
2013-09-21 02:57:00,67.8,66.0,29.74,SSE,155,0.0,1.0,94,0.11,,,0.17,VWS V14.01,2013-09-21 06:57:00,
2013-09-21 03:00:00,67.8,66.3,29.72,SSE,155,0.0,1.0,95,0.13,,,0.19,VWS V14.01,2013-09-21 07:00:00,
2013-09-21 03:02:00,67.6,66.1,29.72,SSE,155,0.0,1.0,95,0.16,,,0.22,VWS V14.01,2013-09-21 07:02:00,
2013-09-21 03:07:00,67.6,66.1,29.72,SSE,155,0.0,1.0,95,0.18,,,0.24,VWS V14.01,2013-09-21 07:07:00,
2013-09-21 03:10:00,67.6,66.1,29.72,SSE,155,0.0,1.0,95,0.18,,,0.24,VWS V14.01,2013-09-21 07:10:00,
2013-09-21 03:12:00,67.4,65.9,29.72,SSE,155,0.0,1.0,95,0.18,,,0.25,VWS V14.01,2013-09-21 07:12:00,
2013-09-21 03:17:00,67.4,65.9,29.71,SSE,155,0.0,1.0,95,0.19,,,0.26,VWS V14.01,2013-09-21 07:17:00,
2013-09-21 03:20:00,67.4,65.9,29.71,SSE,155,0.0,1.0,95,0.19,,,0.26,VWS V14.01,2013-09-21 07:20:00,
2013-09-21 03:22:00,67.4,66.2,29.71,SSE,155,0.0,1.0,96,0.17,,,0.26,VWS V14.01,2013-09-21 07:22:00,
2013-09-21 03:27:00,67.3,66.1,29.71,SSE,155,0.0,1.0,96,0.17,,,0.26,VWS V14.01,2013-09-21 07:27:00,
2013-09-21 03:30:00,67.3,66.1,29.70,SSE,155,0.0,1.0,96,0.17,,,0.26,VWS V14.01,2013-09-21 07:30:00,
2013-09-21 03:32:00,67.3,66.1,29.70,SSE,155,0.0,1.0,96,0.16,,,0.26,VWS V14.01,2013-09-21 07:32:00,
2013-09-21 03:50:00,67.3,66.1,29.69,SSE,155,0.0,1.0,96,0.21,,,0.32,VWS V14.01,2013-09-21 07:50:00,
2013-09-21 04:02:00,66.3,64.8,29.71,West,269,1.0,1.0,95,0.22,,,0.41,VWS V14.01,2013-09-21 08:02:00,
2013-09-21 04:10:00,65.6,64.1,29.71,North,355,1.0,1.0,95,0.25,,,0.44,VWS V14.01,2013-09-21 08:10:00,
2013-09-21 04:22:00,65.3,64.1,29.71,NNW,331,0.0,1.0,96,0.21,,,0.47,VWS V14.01,2013-09-21 08:22:00,
2013-09-21 04:42:00,67.3,66.1,29.70,SSE,155,0.0,1.0,96,0.17,,,0.27,VWS V14.01,2013-09-21 08:42:00,
2013-09-21 04:47:00,67.3,66.1,29.70,SSE,155,0.0,1.0,96,0.18,,,0.29,VWS V14.01,2013-09-21 08:47:00,
2013-09-21 04:50:00,64.8,63.6,29.71,WNW,300,0.0,1.0,96,0.25,,,0.53,VWS V14.01,2013-09-21 08:50:00,
2013-09-21 04:52:00,67.3,66.1,29.69,SSE,155,0.0,1.0,96,0.20,,,0.31,VWS V14.01,2013-09-21 08:52:00,
2013-09-21 04:57:00,67.3,66.1,29.69,SSE,155,1.0,1.0,96,0.20,,,0.32,VWS V14.01,2013-09-21 08:57:00,
2013-09-21 05:02:00,67.1,65.9,29.69,West,271,3.0,3.0,96,0.22,,,0.34,VWS V14.01,2013-09-21 09:02:00,
2013-09-21 05:10:00,64.3,63.1,29.71,NNW,327,2.0,2.0,96,0.17,,,0.56,VWS V14.01,2013-09-21 09:10:00,
2013-09-21 05:12:00,65.8,64.3,29.71,NNW,330,2.0,2.0,95,0.24,,,0.43,VWS V14.01,2013-09-21 09:12:00,
2013-09-21 05:17:00,65.5,64.0,29.71,NNW,333,4.0,4.0,95,0.21,,,0.45,VWS V14.01,2013-09-21 09:17:00,
2013-09-21 05:22:00,65.3,63.8,29.71,NNW,331,0.0,1.0,95,0.21,,,0.45,VWS V14.01,2013-09-21 09:22:00,
2013-09-21 05:27:00,64.2,63.0,29.71,NW,326,0.0,1.0,96,0.14,,,0.60,VWS V14.01,2013-09-21 09:27:00,
2013-09-21 05:30:00,64.3,63.1,29.73,NW,326,0.0,1.0,96,0.14,,,0.60,VWS V14.01,2013-09-21 09:30:00,
2013-09-21 05:32:00,65.2,64.0,29.71,NNW,338,1.0,1.0,96,0.23,,,0.49,VWS V14.01,2013-09-21 09:32:00,
2013-09-21 05:37:00,65.2,64.0,29.71,NNW,338,0.0,1.0,96,0.24,,,0.50,VWS V14.01,2013-09-21 09:37:00,
2013-09-21 05:42:00,65.2,64.0,29.71,NNW,338,1.0,1.0,96,0.25,,,0.51,VWS V14.01,2013-09-21 09:42:00,
2013-09-21 05:47:00,65.0,63.8,29.71,NNW,340,2.0,2.0,96,0.24,,,0.52,VWS V14.01,2013-09-21 09:47:00,
2013-09-21 05:52:00,65.0,63.8,29.71,NW,305,2.0,2.0,96,0.24,,,0.52,VWS V14.01,2013-09-21 09:52:00,
2013-09-21 06:05:00,64.7,63.5,29.71,NNW,348,4.0,4.0,96,0.22,,,0.54,VWS V14.01,2013-09-21 10:05:00,
2013-09-21 06:12:00,64.5,63.3,29.71,NW,321,0.0,1.0,96,0.17,,,0.56,VWS V14.01,2013-09-21 10:12:00,
2013-09-21 06:17:00,64.3,62.8,29.71,NNW,327,1.0,1.0,95,0.13,,,0.57,VWS V14.01,2013-09-21 10:17:00,
2013-09-21 06:22:00,64.3,63.1,29.71,NW,326,0.0,1.0,96,0.14,,,0.58,VWS V14.01,2013-09-21 10:22:00,
2013-09-21 06:27:00,64.2,63.0,29.71,NW,326,0.0,1.0,96,0.13,,,0.59,VWS V14.01,2013-09-21 10:27:00,
2013-09-21 06:33:00,64.3,63.1,29.70,NW,325,0.0,1.0,96,0.09,,,0.69,VWS V14.01,2013-09-21 10:33:00,
2013-09-21 06:38:00,64.3,63.1,29.73,NW,326,0.0,1.0,96,0.10,,,0.60,VWS V14.01,2013-09-21 10:38:00,
2013-09-21 06:45:00,64.3,63.1,29.73,NW,325,0.0,1.0,96,0.12,,,0.62,VWS V14.01,2013-09-21 10:45:00,
2013-09-21 06:50:00,64.5,63.3,29.72,NW,325,0.0,1.0,96,0.07,,,0.69,VWS V14.01,2013-09-21 10:50:00,
2013-09-21 06:53:00,64.3,63.1,29.73,NW,325,0.0,1.0,96,0.13,,,0.64,VWS V14.01,2013-09-21 10:53:00,
2013-09-21 06:58:00,64.3,63.1,29.73,NW,325,0.0,1.0,96,0.12,,,0.65,VWS V14.01,2013-09-21 10:58:00,
2013-09-21 07:03:00,64.3,63.1,29.73,NW,325,2.0,2.0,96,0.13,,,0.66,VWS V14.01,2013-09-21 11:03:00,
2013-09-21 07:08:00,64.3,63.1,29.72,NW,325,0.0,1.0,96,0.13,,,0.67,VWS V14.01,2013-09-21 11:08:00,
2013-09-21 07:13:00,64.3,63.1,29.72,NW,325,0.0,1.0,96,0.14,,,0.68,VWS V14.01,2013-09-21 11:13:00,
2013-09-21 07:18:00,64.3,63.1,29.72,NW,325,0.0,1.0,96,0.12,,,0.68,VWS V14.01,2013-09-21 11:18:00,
2013-09-21 07:23:00,64.3,63.1,29.71,NW,325,0.0,1.0,96,0.12,,,0.68,VWS V14.01,2013-09-21 11:23:00,
2013-09-21 07:28:00,64.3,63.1,29.71,NW,325,0.0,1.0,96,0.10,,,0.68,VWS V14.01,2013-09-21 11:28:00,
2013-09-21 07:33:00,64.3,63.1,29.71,NW,325,0.0,1.0,96,0.11,,,0.69,VWS V14.01,2013-09-21 11:33:00,
2013-09-21 07:43:00,64.3,63.1,29.70,NW,325,0.0,1.0,96,0.09,,,0.69,VWS V14.01,2013-09-21 11:43:00,
2013-09-21 07:48:00,64.3,63.1,29.70,NW,325,0.0,1.0,96,0.07,,,0.69,VWS V14.01,2013-09-21 11:48:00,
2013-09-21 07:53:00,64.5,63.3,29.72,NW,325,0.0,1.0,96,0.07,,,0.69,VWS V14.01,2013-09-21 11:53:00,
2013-09-21 07:58:00,64.5,63.3,29.72,NW,325,0.0,1.0,96,0.04,,,0.69,VWS V14.01,2013-09-21 11:58:00,
2013-09-21 08:00:00,64.5,63.6,29.74,NW,325,0.0,1.0,97,0.01,,,0.70,VWS V14.01,2013-09-21 12:00:00,
2013-09-21 08:03:00,64.5,63.3,29.72,NW,325,0.0,1.0,96,0.04,,,0.69,VWS V14.01,2013-09-21 12:03:00,
2013-09-21 08:08:00,64.5,63.3,29.73,NW,325,0.0,1.0,96,0.02,,,0.69,VWS V14.01,2013-09-21 12:08:00,
2013-09-21 08:13:00,64.5,63.3,29.73,NW,325,0.0,1.0,96,0.02,,,0.69,VWS V14.01,2013-09-21 12:13:00,
2013-09-21 08:18:00,64.5,63.3,29.73,NW,325,0.0,1.0,96,0.02,,,0.70,VWS V14.01,2013-09-21 12:18:00,
2013-09-21 08:23:00,64.5,63.6,29.75,NW,325,0.0,1.0,97,0.02,,,0.70,VWS V14.01,2013-09-21 12:23:00,
2013-09-21 08:33:00,64.5,63.6,29.75,NW,325,0.0,1.0,97,0.02,,,0.70,VWS V14.01,2013-09-21 12:33:00,
2013-09-21 08:38:00,64.5,63.6,29.74,NW,325,0.0,1.0,97,0.01,,,0.70,VWS V14.01,2013-09-21 12:38:00,
2013-09-21 08:40:00,64.0,63.1,29.76,WNW,298,4.0,4.0,97,0.00,,,0.70,VWS V14.01,2013-09-21 12:40:00,
2013-09-21 08:43:00,64.5,63.6,29.74,NW,325,0.0,1.0,97,0.01,,,0.70,VWS V14.01,2013-09-21 12:43:00,
2013-09-21 08:48:00,64.5,63.6,29.74,NW,325,0.0,1.0,97,0.01,,,0.70,VWS V14.01,2013-09-21 12:48:00,
2013-09-21 08:53:00,64.5,63.6,29.75,NW,325,0.0,1.0,97,0.01,,,0.70,VWS V14.01,2013-09-21 12:53:00,
2013-09-21 08:58:00,64.5,63.6,29.75,NW,325,0.0,1.0,97,0.01,,,0.70,VWS V14.01,2013-09-21 12:58:00,
2013-09-21 09:03:00,64.5,63.6,29.75,NW,325,0.0,1.0,97,0.01,,,0.70,VWS V14.01,2013-09-21 13:03:00,
2013-09-21 09:08:00,64.7,63.8,29.74,NW,325,0.0,1.0,97,0.01,,,0.70,VWS V14.01,2013-09-21 13:08:00,
2013-09-21 09:13:00,64.5,63.6,29.74,NW,325,0.0,1.0,97,0.01,,,0.70,VWS V14.01,2013-09-21 13:13:00,
2013-09-21 09:18:00,64.5,63.6,29.74,NW,325,0.0,1.0,97,0.00,,,0.70,VWS V14.01,2013-09-21 13:18:00,
2013-09-21 09:25:00,64.7,63.8,29.75,NW,325,0.0,1.0,97,0.00,,,0.70,VWS V14.01,2013-09-21 13:25:00,
2013-09-21 09:33:00,64.7,63.8,29.75,NW,325,0.0,1.0,97,0.00,,,0.70,VWS V14.01,2013-09-21 13:33:00,
2013-09-21 09:38:00,64.8,63.9,29.76,NW,325,0.0,1.0,97,0.00,,,0.70,VWS V14.01,2013-09-21 13:38:00,
2013-09-21 09:43:00,64.7,63.8,29.76,West,271,1.0,1.0,97,0.00,,,0.70,VWS V14.01,2013-09-21 13:43:00,
2013-09-21 09:48:00,62.6,61.5,29.76,WNW,292,3.0,3.0,96,0.00,,,0.70,VWS V14.01,2013-09-21 13:48:00,
2013-09-21 09:53:00,61.3,59.9,29.77,West,279,1.0,1.0,95,0.00,,,0.70,VWS V14.01,2013-09-21 13:53:00,
2013-09-21 10:03:00,61.0,59.9,29.77,West,279,0.0,1.0,96,0.00,,,0.70,VWS V14.01,2013-09-21 14:03:00,
2013-09-21 10:08:00,60.9,59.8,29.78,West,279,0.0,1.0,96,0.00,,,0.70,VWS V14.01,2013-09-21 14:08:00,
2013-09-21 10:13:00,60.5,59.1,29.78,West,279,0.0,1.0,95,0.00,,,0.70,VWS V14.01,2013-09-21 14:13:00,
2013-09-21 10:18:00,60.4,59.0,29.78,West,279,0.0,1.0,95,0.00,,,0.70,VWS V14.01,2013-09-21 14:18:00,
2013-09-21 10:23:00,60.5,59.1,29.78,West,279,2.0,2.0,95,0.00,,,0.70,VWS V14.01,2013-09-21 14:23:00,
2013-09-21 10:28:00,60.7,59.3,29.78,West,279,2.0,2.0,95,0.00,,,0.70,VWS V14.01,2013-09-21 14:28:00,
2013-09-21 10:33:00,60.7,59.3,29.78,West,279,1.0,1.0,95,0.00,,,0.70,VWS V14.01,2013-09-21 14:33:00,
2013-09-21 10:38:00,61.0,59.6,29.78,West,279,0.0,1.0,95,0.00,,,0.70,VWS V14.01,2013-09-21 14:38:00,
2013-09-21 10:43:00,61.0,59.6,29.78,West,279,0.0,1.0,95,0.00,,,0.70,VWS V14.01,2013-09-21 14:43:00,
2013-09-21 10:48:00,61.0,59.6,29.78,West,279,2.0,2.0,95,0.00,,,0.70,VWS V14.01,2013-09-21 14:48:00,
2013-09-21 10:53:00,60.7,59.0,29.78,West,279,2.0,2.0,94,0.00,,,0.70,VWS V14.01,2013-09-21 14:53:00,
2013-09-21 10:58:00,60.5,58.8,29.78,West,279,2.0,2.0,94,0.00,,,0.70,VWS V14.01,2013-09-21 14:58:00,
2013-09-21 11:03:00,60.5,58.8,29.78,West,279,0.0,1.0,94,0.00,,,0.70,VWS V14.01,2013-09-21 15:03:00,
2013-09-21 11:08:00,60.7,59.0,29.78,West,279,2.0,2.0,94,0.00,,,0.70,VWS V14.01,2013-09-21 15:08:00,
2013-09-21 11:13:00,60.4,58.4,29.78,West,280,3.0,3.0,93,0.00,,,0.70,VWS V14.01,2013-09-21 15:13:00,
2013-09-21 11:18:00,60.4,58.4,29.78,West,280,0.0,1.0,93,0.00,,,0.70,VWS V14.01,2013-09-21 15:18:00,
2013-09-21 11:23:00,60.2,58.2,29.79,West,280,0.0,1.0,93,0.00,,,0.70,VWS V14.01,2013-09-21 15:23:00,
2013-09-21 11:28:00,60.4,58.4,29.79,West,280,0.0,1.0,93,0.00,,,0.70,VWS V14.01,2013-09-21 15:28:00,
2013-09-21 11:33:00,60.4,58.1,29.79,West,280,0.0,1.0,92,0.00,,,0.70,VWS V14.01,2013-09-21 15:33:00,
2013-09-21 11:38:00,60.5,58.2,29.79,West,280,0.0,1.0,92,0.01,,,0.71,VWS V14.01,2013-09-21 15:38:00,
2013-09-21 11:43:00,60.4,58.1,29.79,West,280,0.0,1.0,92,0.01,,,0.71,VWS V14.01,2013-09-21 15:43:00,
2013-09-21 11:48:00,60.5,57.9,29.79,West,280,0.0,1.0,91,0.01,,,0.71,VWS V14.01,2013-09-21 15:48:00,
2013-09-21 11:53:00,60.7,58.1,29.79,West,280,1.0,1.0,91,0.01,,,0.71,VWS V14.01,2013-09-21 15:53:00,
2013-09-21 11:58:00,60.7,57.8,29.79,West,280,0.0,1.0,90,0.01,,,0.71,VWS V14.01,2013-09-21 15:58:00,
2013-09-21 12:03:00,60.9,57.6,29.79,West,280,1.0,1.0,89,0.01,,,0.71,VWS V14.01,2013-09-21 16:03:00,
2013-09-21 12:08:00,60.9,57.0,29.80,West,280,3.0,3.0,87,0.01,,,0.71,VWS V14.01,2013-09-21 16:08:00,
2013-09-21 12:13:00,61.2,57.0,29.80,West,280,4.0,4.0,86,0.01,,,0.71,VWS V14.01,2013-09-21 16:13:00,
2013-09-21 12:18:00,61.2,56.0,29.80,West,273,2.0,2.0,83,0.01,,,0.71,VWS V14.01,2013-09-21 16:18:00,
2013-09-21 12:23:00,61.3,56.1,29.79,West,273,2.0,2.0,83,0.01,,,0.71,VWS V14.01,2013-09-21 16:23:00,
2013-09-21 12:28:00,61.5,56.3,29.79,West,273,2.0,2.0,83,0.01,,,0.71,VWS V14.01,2013-09-21 16:28:00,
2013-09-21 12:33:00,61.6,56.1,29.79,WNW,294,1.0,1.0,82,0.01,,,0.71,VWS V14.01,2013-09-21 16:33:00,
2013-09-21 12:38:00,61.8,55.2,29.79,West,273,3.0,3.0,79,0.01,,,0.71,VWS V14.01,2013-09-21 16:38:00,
2013-09-21 12:43:00,61.8,55.6,29.79,NW,315,1.0,1.0,80,0.01,,,0.71,VWS V14.01,2013-09-21 16:43:00,
2013-09-21 12:48:00,62.0,55.8,29.79,NW,304,0.0,1.0,80,0.00,,,0.71,VWS V14.01,2013-09-21 16:48:00,
2013-09-21 12:53:00,62.0,56.5,29.80,NW,304,2.0,2.0,82,0.00,,,0.71,VWS V14.01,2013-09-21 16:53:00,
2013-09-21 12:58:00,62.0,55.8,29.80,WNW,293,1.0,1.0,80,0.00,,,0.71,VWS V14.01,2013-09-21 16:58:00,
2013-09-21 13:03:00,62.3,56.1,29.80,WNW,294,3.0,3.0,80,0.00,,,0.71,VWS V14.01,2013-09-21 17:03:00,
2013-09-21 13:08:00,62.3,55.0,29.80,NNW,340,1.0,1.0,77,0.00,,,0.71,VWS V14.01,2013-09-21 17:08:00,
2013-09-21 13:14:00,62.1,54.8,29.80,WNW,296,0.0,1.0,77,0.00,,,0.71,VWS V14.01,2013-09-21 17:14:00,
2013-09-21 13:19:00,62.7,56.5,29.80,WNW,295,2.0,2.0,80,0.00,,,0.71,VWS V14.01,2013-09-21 17:19:00,
2013-09-21 13:24:00,63.1,55.8,29.80,NNW,347,8.0,8.0,77,0.00,,,0.71,VWS V14.01,2013-09-21 17:24:00,
2013-09-21 13:29:00,63.1,54.7,29.80,WNW,298,1.0,1.0,74,0.00,,,0.71,VWS V14.01,2013-09-21 17:29:00,
2013-09-21 13:34:00,63.5,55.1,29.80,WNW,293,1.0,1.0,74,0.00,,,0.71,VWS V14.01,2013-09-21 17:34:00,
2013-09-21 13:39:00,63.9,55.5,29.80,WNW,288,2.0,2.0,74,0.00,,,0.71,VWS V14.01,2013-09-21 17:39:00,
2013-09-21 13:44:00,64.0,55.2,29.80,NNW,327,2.0,2.0,73,0.00,,,0.71,VWS V14.01,2013-09-21 17:44:00,
2013-09-21 13:49:00,64.3,54.3,29.80,WNW,298,3.0,3.0,70,0.00,,,0.71,VWS V14.01,2013-09-21 17:49:00,
2013-09-21 13:54:00,64.0,54.0,29.80,NW,315,0.0,1.0,70,0.00,,,0.71,VWS V14.01,2013-09-21 17:54:00,
2013-09-21 13:59:00,64.0,54.4,29.80,WNW,294,1.0,1.0,71,0.00,,,0.71,VWS V14.01,2013-09-21 17:59:00,
2013-09-21 14:04:00,64.5,54.5,29.80,West,277,0.0,1.0,70,0.00,,,0.71,VWS V14.01,2013-09-21 18:04:00,
2013-09-21 14:09:00,65.2,53.2,29.80,WNW,288,0.0,1.0,65,0.00,,,0.71,VWS V14.01,2013-09-21 18:09:00,
2013-09-21 14:14:00,65.8,55.0,29.80,WNW,292,0.0,1.0,68,0.00,,,0.71,VWS V14.01,2013-09-21 18:14:00,
2013-09-21 14:19:00,66.4,54.3,29.79,WNW,300,2.0,2.0,65,0.00,,,0.71,VWS V14.01,2013-09-21 18:19:00,
2013-09-21 14:24:00,66.1,53.2,29.79,NNW,342,2.0,2.0,63,0.00,,,0.71,VWS V14.01,2013-09-21 18:24:00,
2013-09-21 14:29:00,66.4,54.7,29.79,West,268,2.0,2.0,66,0.00,,,0.71,VWS V14.01,2013-09-21 18:29:00,
2013-09-21 14:34:00,66.6,54.1,29.79,WNW,286,4.0,4.0,64,0.00,,,0.71,VWS V14.01,2013-09-21 18:34:00,
2013-09-21 14:39:00,66.4,54.7,29.79,NW,318,1.0,1.0,66,0.00,,,0.71,VWS V14.01,2013-09-21 18:39:00,
2013-09-21 14:44:00,66.3,53.8,29.79,NW,314,3.0,3.0,64,0.00,,,0.71,VWS V14.01,2013-09-21 18:44:00,
2013-09-21 14:49:00,66.6,53.2,29.79,WNW,284,0.0,1.0,62,0.00,,,0.71,VWS V14.01,2013-09-21 18:49:00,
2013-09-21 14:54:00,66.6,54.1,29.79,West,272,6.0,6.0,64,0.00,,,0.71,VWS V14.01,2013-09-21 18:54:00,
2013-09-21 14:59:00,66.3,54.2,29.79,West,279,2.0,2.0,65,0.00,,,0.71,VWS V14.01,2013-09-21 18:59:00,
2013-09-21 15:04:00,66.1,53.2,29.79,WNW,282,1.0,1.0,63,0.00,,,0.71,VWS V14.01,2013-09-21 19:04:00,
2013-09-21 15:09:00,66.0,53.5,29.79,NNW,345,1.0,1.0,64,0.00,,,0.71,VWS V14.01,2013-09-21 19:09:00,
2013-09-21 15:14:00,66.1,53.2,29.79,West,279,1.0,1.0,63,0.00,,,0.71,VWS V14.01,2013-09-21 19:14:00,
2013-09-21 15:19:00,66.1,53.6,29.79,North,5,4.0,4.0,64,0.00,,,0.71,VWS V14.01,2013-09-21 19:19:00,
2013-09-21 15:24:00,66.8,54.2,29.79,North,5,0.0,1.0,64,0.00,,,0.71,VWS V14.01,2013-09-21 19:24:00,
2013-09-21 15:29:00,67.6,54.1,29.79,WNW,295,1.0,1.0,62,0.00,,,0.71,VWS V14.01,2013-09-21 19:29:00,
2013-09-21 15:34:00,67.6,53.7,29.79,NW,320,1.0,1.0,61,0.00,,,0.71,VWS V14.01,2013-09-21 19:34:00,
2013-09-21 15:39:00,67.3,53.0,29.79,NW,319,3.0,3.0,60,0.00,,,0.71,VWS V14.01,2013-09-21 19:39:00,
2013-09-21 15:44:00,66.9,53.0,29.79,WNW,303,1.0,1.0,61,0.00,,,0.71,VWS V14.01,2013-09-21 19:44:00,
2013-09-21 15:49:00,67.1,53.2,29.79,NNE,19,1.0,1.0,61,0.00,,,0.71,VWS V14.01,2013-09-21 19:49:00,
2013-09-21 15:54:00,67.6,52.8,29.79,NW,310,6.0,6.0,59,0.00,,,0.71,VWS V14.01,2013-09-21 19:54:00,
2013-09-21 15:59:00,67.6,52.8,29.79,West,277,0.0,1.0,59,0.00,,,0.71,VWS V14.01,2013-09-21 19:59:00,
2013-09-21 16:04:00,67.4,52.6,29.79,North,351,3.0,3.0,59,0.00,,,0.71,VWS V14.01,2013-09-21 20:04:00,
2013-09-21 16:09:00,67.8,53.0,29.79,West,267,0.0,1.0,59,0.00,,,0.71,VWS V14.01,2013-09-21 20:09:00,
2013-09-21 16:14:00,68.1,51.8,29.79,West,279,5.0,5.0,56,0.00,,,0.71,VWS V14.01,2013-09-21 20:14:00,
2013-09-21 16:19:00,68.3,52.0,29.79,WNW,294,4.0,4.0,56,0.00,,,0.71,VWS V14.01,2013-09-21 20:19:00,
2013-09-21 16:24:00,68.4,53.1,29.79,NNW,341,0.0,1.0,58,0.00,,,0.71,VWS V14.01,2013-09-21 20:24:00,
2013-09-21 16:29:00,68.4,52.1,29.79,WNW,290,1.0,1.0,56,0.00,,,0.71,VWS V14.01,2013-09-21 20:29:00,
2013-09-21 16:34:00,68.6,52.3,29.79,NW,313,2.0,2.0,56,0.00,,,0.71,VWS V14.01,2013-09-21 20:34:00,
2013-09-21 16:39:00,68.3,53.0,29.79,WNW,298,0.0,1.0,58,0.00,,,0.71,VWS V14.01,2013-09-21 20:39:00,
2013-09-21 16:44:00,68.3,51.5,29.79,West,279,1.0,1.0,55,0.00,,,0.71,VWS V14.01,2013-09-21 20:44:00,
2013-09-21 16:49:00,68.3,52.0,29.79,West,280,2.0,2.0,56,0.00,,,0.71,VWS V14.01,2013-09-21 20:49:00,
2013-09-21 16:54:00,67.9,51.2,29.79,WNW,292,3.0,3.0,55,0.00,,,0.71,VWS V14.01,2013-09-21 20:54:00,
2013-09-21 16:59:00,67.8,51.5,29.79,WNW,296,4.0,4.0,56,0.00,,,0.71,VWS V14.01,2013-09-21 20:59:00,
2013-09-21 17:04:00,67.6,50.9,29.79,NW,319,1.0,1.0,55,0.00,,,0.71,VWS V14.01,2013-09-21 21:04:00,
2013-09-21 17:09:00,67.4,50.7,29.79,WNW,299,1.0,1.0,55,0.00,,,0.71,VWS V14.01,2013-09-21 21:09:00,
2013-09-21 17:14:00,67.6,49.4,29.79,West,277,4.0,4.0,52,0.00,,,0.71,VWS V14.01,2013-09-21 21:14:00,
2013-09-21 17:19:00,67.8,50.1,29.79,WNW,287,1.0,1.0,53,0.00,,,0.71,VWS V14.01,2013-09-21 21:19:00,
2013-09-21 17:24:00,68.1,48.8,29.79,WNW,284,5.0,5.0,50,0.00,,,0.71,VWS V14.01,2013-09-21 21:24:00,
2013-09-21 17:29:00,68.4,49.1,29.79,WNW,282,1.0,1.0,50,0.00,,,0.71,VWS V14.01,2013-09-21 21:29:00,
2013-09-21 17:34:00,68.6,49.2,29.79,West,263,3.0,3.0,50,0.00,,,0.71,VWS V14.01,2013-09-21 21:34:00,
2013-09-21 17:39:00,68.6,49.2,29.79,WNW,291,1.0,1.0,50,0.00,,,0.71,VWS V14.01,2013-09-21 21:39:00,
2013-09-21 17:44:00,68.8,50.5,29.79,North,350,2.0,2.0,52,0.00,,,0.71,VWS V14.01,2013-09-21 21:44:00,
2013-09-21 17:49:00,68.9,51.1,29.80,WNW,288,0.0,1.0,53,0.00,,,0.71,VWS V14.01,2013-09-21 21:49:00,
2013-09-21 17:54:00,69.1,50.2,29.80,West,260,2.0,2.0,51,0.00,,,0.71,VWS V14.01,2013-09-21 21:54:00,
2013-09-21 17:59:00,69.1,49.7,29.80,WNW,290,1.0,1.0,50,0.00,,,0.71,VWS V14.01,2013-09-21 21:59:00,
2013-09-21 18:04:00,68.9,50.0,29.80,NNW,346,2.0,2.0,51,0.00,,,0.71,VWS V14.01,2013-09-21 22:04:00,
2013-09-21 18:09:00,68.8,49.4,29.80,NW,309,0.0,1.0,50,0.00,,,0.71,VWS V14.01,2013-09-21 22:09:00,
2013-09-21 18:14:00,68.8,49.4,29.80,North,360,0.0,1.0,50,0.00,,,0.71,VWS V14.01,2013-09-21 22:14:00,
2013-09-21 18:19:00,68.8,50.0,29.80,North,360,0.0,1.0,51,0.00,,,0.71,VWS V14.01,2013-09-21 22:19:00,
2013-09-21 18:24:00,68.6,49.8,29.80,NNW,338,0.0,1.0,51,0.00,,,0.71,VWS V14.01,2013-09-21 22:24:00,
2013-09-21 18:29:00,68.4,50.1,29.80,NW,317,2.0,2.0,52,0.00,,,0.71,VWS V14.01,2013-09-21 22:29:00,
2013-09-21 18:34:00,68.4,50.1,29.80,NW,321,0.0,1.0,52,0.00,,,0.71,VWS V14.01,2013-09-21 22:34:00,
2013-09-21 18:40:00,68.1,49.8,29.80,NW,321,0.0,1.0,52,0.00,,,0.71,VWS V14.01,2013-09-21 22:40:00,
2013-09-21 18:45:00,67.9,50.2,29.80,NW,326,0.0,1.0,53,0.00,,,0.71,VWS V14.01,2013-09-21 22:45:00,
2013-09-21 18:50:00,67.8,50.6,29.80,NW,325,0.0,1.0,54,0.00,,,0.71,VWS V14.01,2013-09-21 22:50:00,
2013-09-21 18:55:00,67.4,50.2,29.80,NW,325,0.0,1.0,54,0.00,,,0.71,VWS V14.01,2013-09-21 22:55:00,
2013-09-21 19:00:00,67.1,50.4,29.80,NW,325,0.0,1.0,55,0.00,,,0.71,VWS V14.01,2013-09-21 23:00:00,
2013-09-21 19:05:00,66.9,51.2,29.81,NW,325,0.0,1.0,57,0.00,,,0.71,VWS V14.01,2013-09-21 23:05:00,
2013-09-21 19:10:00,66.6,50.9,29.81,NW,325,0.0,1.0,57,0.00,,,0.71,VWS V14.01,2013-09-21 23:10:00,
2013-09-21 19:15:00,66.3,51.1,29.81,NW,325,0.0,1.0,58,0.00,,,0.71,VWS V14.01,2013-09-21 23:15:00,
2013-09-21 19:20:00,66.1,51.4,29.81,NW,325,0.0,1.0,59,0.00,,,0.71,VWS V14.01,2013-09-21 23:20:00,
2013-09-21 19:25:00,65.8,51.5,29.81,NW,325,0.0,1.0,60,0.00,,,0.71,VWS V14.01,2013-09-21 23:25:00,
2013-09-21 19:30:00,65.6,51.4,29.81,NW,325,0.0,1.0,60,0.00,,,0.71,VWS V14.01,2013-09-21 23:30:00,
2013-09-21 19:35:00,65.3,51.5,29.82,NW,325,0.0,1.0,61,0.00,,,0.71,VWS V14.01,2013-09-21 23:35:00,
2013-09-21 19:40:00,65.0,51.7,29.82,NW,325,0.0,1.0,62,0.00,,,0.71,VWS V14.01,2013-09-21 23:40:00,
2013-09-21 19:45:00,64.7,51.8,29.82,NW,325,0.0,1.0,63,0.00,,,0.71,VWS V14.01,2013-09-21 23:45:00,
2013-09-21 19:50:00,64.3,52.3,29.82,NW,325,0.0,1.0,65,0.00,,,0.71,VWS V14.01,2013-09-21 23:50:00,
2013-09-21 19:55:00,64.0,52.4,29.82,NW,325,0.0,1.0,66,0.00,,,0.71,VWS V14.01,2013-09-21 23:55:00,
2013-09-21 20:00:00,63.7,53.0,29.82,NW,325,0.0,1.0,68,0.00,,,0.71,VWS V14.01,2013-09-22 00:00:00,
2013-09-21 20:05:00,63.4,53.1,29.82,NW,325,0.0,1.0,69,0.00,,,0.71,VWS V14.01,2013-09-22 00:05:00,
2013-09-21 20:10:00,62.9,53.0,29.82,NW,325,0.0,1.0,70,0.00,,,0.71,VWS V14.01,2013-09-22 00:10:00,
2013-09-21 20:15:00,62.6,53.1,29.82,NW,325,0.0,1.0,71,0.00,,,0.71,VWS V14.01,2013-09-22 00:15:00,
2013-09-21 20:20:00,62.3,52.8,29.83,NW,325,0.0,1.0,71,0.00,,,0.71,VWS V14.01,2013-09-22 00:20:00,
2013-09-21 20:25:00,62.0,53.3,29.83,NW,325,0.0,1.0,73,0.00,,,0.71,VWS V14.01,2013-09-22 00:25:00,
2013-09-21 20:30:00,61.6,52.5,29.83,NW,325,0.0,1.0,72,0.00,,,0.71,VWS V14.01,2013-09-22 00:30:00,
2013-09-21 20:35:00,61.5,52.4,29.83,NW,325,0.0,1.0,72,0.00,,,0.71,VWS V14.01,2013-09-22 00:35:00,
2013-09-21 20:40:00,61.2,51.7,29.83,NW,325,0.0,1.0,71,0.00,,,0.71,VWS V14.01,2013-09-22 00:40:00,
2013-09-21 20:45:00,61.2,52.5,29.83,NW,325,0.0,1.0,73,0.00,,,0.71,VWS V14.01,2013-09-22 00:45:00,
2013-09-21 20:50:00,61.0,52.3,29.84,NW,325,0.0,1.0,73,0.00,,,0.71,VWS V14.01,2013-09-22 00:50:00,
2013-09-21 20:55:00,60.9,51.8,29.84,NW,325,0.0,1.0,72,0.00,,,0.71,VWS V14.01,2013-09-22 00:55:00,
2013-09-21 21:00:00,60.7,51.6,29.84,NW,325,0.0,1.0,72,0.00,,,0.71,VWS V14.01,2013-09-22 01:00:00,
2013-09-21 21:05:00,60.5,51.4,29.84,NW,325,0.0,1.0,72,0.00,,,0.71,VWS V14.01,2013-09-22 01:05:00,
2013-09-21 21:10:00,60.5,51.1,29.84,NW,325,0.0,1.0,71,0.00,,,0.71,VWS V14.01,2013-09-22 01:10:00,
2013-09-21 21:15:00,60.5,50.7,29.84,NW,325,0.0,1.0,70,0.00,,,0.71,VWS V14.01,2013-09-22 01:15:00,
2013-09-21 21:20:00,60.5,51.1,29.84,NW,325,0.0,1.0,71,0.00,,,0.71,VWS V14.01,2013-09-22 01:20:00,
2013-09-21 21:25:00,60.5,50.7,29.84,NW,325,0.0,1.0,70,0.00,,,0.71,VWS V14.01,2013-09-22 01:25:00,
2013-09-21 21:30:00,60.5,51.1,29.84,NW,325,0.0,1.0,71,0.00,,,0.71,VWS V14.01,2013-09-22 01:30:00,
2013-09-21 21:35:00,60.4,51.3,29.85,NW,325,0.0,1.0,72,0.00,,,0.71,VWS V14.01,2013-09-22 01:35:00,
2013-09-21 21:40:00,60.2,51.5,29.85,NW,325,0.0,1.0,73,0.00,,,0.71,VWS V14.01,2013-09-22 01:40:00,
2013-09-21 21:45:00,60.1,51.8,29.85,NW,325,0.0,1.0,74,0.00,,,0.71,VWS V14.01,2013-09-22 01:45:00,
2013-09-21 21:50:00,59.8,51.5,29.85,NW,325,0.0,1.0,74,0.00,,,0.71,VWS V14.01,2013-09-22 01:50:00,
2013-09-21 21:55:00,59.6,51.3,29.85,NW,325,0.0,1.0,74,0.00,,,0.71,VWS V14.01,2013-09-22 01:55:00,
2013-09-21 22:00:00,59.6,51.7,29.85,NW,325,0.0,1.0,75,0.00,,,0.71,VWS V14.01,2013-09-22 02:00:00,
2013-09-21 22:05:00,59.5,51.6,29.85,NW,325,0.0,1.0,75,0.00,,,0.71,VWS V14.01,2013-09-22 02:05:00,
2013-09-21 22:10:00,59.3,52.1,29.85,NW,325,0.0,1.0,77,0.00,,,0.71,VWS V14.01,2013-09-22 02:10:00,
2013-09-21 22:15:00,59.2,52.0,29.85,NW,325,0.0,1.0,77,0.00,,,0.71,VWS V14.01,2013-09-22 02:15:00,
2013-09-21 22:20:00,59.0,51.8,29.85,NW,325,0.0,1.0,77,0.00,,,0.71,VWS V14.01,2013-09-22 02:20:00,
2013-09-21 22:25:00,58.7,51.9,29.85,NW,325,0.0,1.0,78,0.00,,,0.71,VWS V14.01,2013-09-22 02:25:00,
2013-09-21 22:30:00,58.6,51.8,29.85,NW,325,0.0,1.0,78,0.00,,,0.71,VWS V14.01,2013-09-22 02:30:00,
2013-09-21 22:35:00,58.4,51.2,29.85,NW,325,0.0,1.0,77,0.00,,,0.71,VWS V14.01,2013-09-22 02:35:00,
2013-09-21 22:40:00,58.3,51.1,29.85,NW,325,0.0,1.0,77,0.00,,,0.71,VWS V14.01,2013-09-22 02:40:00,
2013-09-21 22:45:00,58.1,51.3,29.85,NW,325,0.0,1.0,78,0.00,,,0.71,VWS V14.01,2013-09-22 02:45:00,
2013-09-21 22:50:00,58.1,50.2,29.86,NW,325,0.0,1.0,75,0.00,,,0.71,VWS V14.01,2013-09-22 02:50:00,
2013-09-21 22:55:00,58.1,50.2,29.86,NW,325,0.0,1.0,75,0.00,,,0.71,VWS V14.01,2013-09-22 02:55:00,
2013-09-21 23:00:00,58.1,49.9,29.86,NW,325,0.0,1.0,74,0.00,,,0.71,VWS V14.01,2013-09-22 03:00:00,
2013-09-21 23:01:00,57.3,49.8,29.87,NW,325,0.0,1.0,76,0.00,,,0.71,VWS V14.01,2013-09-22 03:01:00,
2013-09-21 23:05:00,58.1,49.9,29.86,NW,325,0.0,1.0,74,0.00,,,0.71,VWS V14.01,2013-09-22 03:05:00,
2013-09-21 23:06:00,57.2,50.1,29.87,NW,325,0.0,1.0,77,0.00,,,0.00,VWS V14.01,2013-09-22 03:06:00,
2013-09-21 23:10:00,58.3,50.1,29.86,NW,325,0.0,1.0,74,0.00,,,0.71,VWS V14.01,2013-09-22 03:10:00,
2013-09-21 23:11:00,57.0,50.2,29.87,NW,325,0.0,1.0,78,0.00,,,0.00,VWS V14.01,2013-09-22 03:11:00,
2013-09-21 23:15:00,58.3,50.1,29.86,NW,325,0.0,1.0,74,0.00,,,0.71,VWS V14.01,2013-09-22 03:15:00,
2013-09-21 23:16:00,56.7,50.6,29.87,NW,325,0.0,1.0,80,0.00,,,0.00,VWS V14.01,2013-09-22 03:16:00,
2013-09-21 23:20:00,58.1,49.5,29.86,NW,325,0.0,1.0,73,0.00,,,0.71,VWS V14.01,2013-09-22 03:20:00,
2013-09-21 23:21:00,56.6,50.5,29.87,NW,325,0.0,1.0,80,0.00,,,0.00,VWS V14.01,2013-09-22 03:21:00,
2013-09-21 23:25:00,58.1,49.1,29.86,NW,325,0.0,1.0,72,0.00,,,0.71,VWS V14.01,2013-09-22 03:25:00,
2013-09-21 23:26:00,56.5,50.1,29.87,NW,325,0.0,1.0,79,0.00,,,0.00,VWS V14.01,2013-09-22 03:26:00,
2013-09-21 23:30:00,58.1,48.8,29.86,NW,325,0.0,1.0,71,0.00,,,0.71,VWS V14.01,2013-09-22 03:30:00,
2013-09-21 23:31:00,56.2,49.1,29.87,NW,325,0.0,1.0,77,0.00,,,0.00,VWS V14.01,2013-09-22 03:31:00,
2013-09-21 23:35:00,58.3,49.0,29.87,NW,325,0.0,1.0,71,0.00,,,0.71,VWS V14.01,2013-09-22 03:35:00,
2013-09-21 23:36:00,56.2,49.4,29.87,NW,325,0.0,1.0,78,0.00,,,0.00,VWS V14.01,2013-09-22 03:36:00,
2013-09-21 23:40:00,58.3,50.1,29.87,NW,325,0.0,1.0,74,0.00,,,0.71,VWS V14.01,2013-09-22 03:40:00,
2013-09-21 23:41:00,56.0,48.9,29.87,NW,325,0.0,1.0,77,0.00,,,0.00,VWS V14.01,2013-09-22 03:41:00,
2013-09-21 23:45:00,58.1,50.2,29.87,NW,325,0.0,1.0,75,0.00,,,0.71,VWS V14.01,2013-09-22 03:45:00,
2013-09-21 23:46:00,56.0,49.2,29.87,NW,325,0.0,1.0,78,0.00,,,0.00,VWS V14.01,2013-09-22 03:46:00,
2013-09-21 23:50:00,56.0,49.2,29.87,NW,325,0.0,1.0,78,0.00,,,0.00,VWS V14.01,2013-09-22 03:50:00,
2013-09-21 23:51:00,58.0,50.5,29.87,NW,325,0.0,1.0,76,0.00,,,0.71,VWS V14.01,2013-09-22 03:51:00,
2013-09-21 23:56:00,57.8,50.3,29.87,NW,325,0.0,1.0,76,0.00,,,0.71,VWS V14.01,2013-09-22 03:56:00,